TimeCDT,TemperatureF,Dew PointF,Humidity,Sea Level PressureIn,VisibilityMPH,Wind Direction,Wind SpeedMPH,Gust SpeedMPH,PrecipitationIn,Events,Conditions,WindDirDegrees,DateUTC
12:52 AM,45.0,34.0,65,30.06,10.0,South,11.5,-,N/A,,Clear,170,2011-10-30 05:52:00
1:52 AM,45.0,33.1,63,30.06,10.0,South,11.5,-,N/A,,Clear,170,2011-10-30 06:52:00
2:52 AM,46.4,35.6,66,30.07,10.0,South,13.8,-,N/A,,Clear,170,2011-10-30 07:52:00
3:52 AM,45.0,34.0,65,30.06,10.0,South,11.5,-,N/A,,Clear,170,2011-10-30 08:52:00
4:52 AM,44.1,34.0,68,30.06,10.0,South,11.5,-,N/A,,Clear,170,2011-10-30 09:52:00
5:52 AM,45.0,34.0,65,30.09,10.0,South,10.4,-,N/A,,Clear,170,2011-10-30 10:52:00
6:52 AM,45.0,34.0,65,30.08,10.0,SSE,13.8,-,N/A,,Overcast,160,2011-10-30 11:52:00
7:52 AM,46.9,34.0,61,30.09,10.0,South,13.8,-,N/A,,Overcast,170,2011-10-30 12:52:00
8:52 AM,48.2,33.8,58,30.09,10.0,South,18.4,-,N/A,,Overcast,180,2011-10-30 13:52:00
9:52 AM,50.0,35.1,57,30.10,10.0,South,18.4,-,N/A,,Partly Cloudy,180,2011-10-30 14:52:00
10:52 AM,54.0,35.1,49,30.09,10.0,SSW,18.4,24.2,N/A,,Mostly Cloudy,200,2011-10-30 15:52:00
11:52 AM,59.0,34.0,39,30.08,10.0,SW,20.7,28.8,N/A,,Clear,230,2011-10-30 16:52:00
12:52 PM,59.0,33.1,38,30.07,10.0,WSW,20.7,29.9,N/A,,Clear,240,2011-10-30 17:52:00
1:52 PM,63.0,36.0,37,30.03,10.0,WSW,15.0,21.9,N/A,,Clear,250,2011-10-30 18:52:00
2:52 PM,63.0,35.1,35,30.03,10.0,West,19.6,27.6,N/A,,Clear,270,2011-10-30 19:52:00
3:52 PM,60.1,36.0,41,30.05,10.0,West,15.0,20.7,N/A,,Clear,270,2011-10-30 20:52:00
4:52 PM,59.0,36.0,42,30.05,10.0,West,15.0,20.7,N/A,,Clear,260,2011-10-30 21:52:00
5:52 PM,55.9,36.0,47,30.06,10.0,West,9.2,-,N/A,,Clear,270,2011-10-30 22:52:00
6:52 PM,51.1,36.0,56,30.08,10.0,WSW,8.1,-,N/A,,Clear,250,2011-10-30 23:52:00
7:52 PM,52.0,34.0,50,30.10,10.0,West,8.1,-,N/A,,Clear,270,2011-10-31 00:52:00
8:52 PM,48.9,28.0,44,30.12,10.0,WNW,5.8,-,N/A,,Clear,300,2011-10-31 01:52:00
9:52 PM,48.0,26.1,42,30.14,10.0,West,5.8,-,N/A,,Clear,280,2011-10-31 02:52:00
10:52 PM,39.9,27.0,60,30.15,10.0,West,3.5,-,N/A,,Clear,270,2011-10-31 03:52:00
11:52 PM,39.0,27.0,62,30.14,10.0,SW,5.8,-,N/A,,Clear,230,2011-10-31 04:52:00